Voltar ao catálogo

COSMOS 2499 DEB

LostPO
NORAD 56577·DEBRIS·🇷🇺 Russia

Lançado May 23, 2014 de Plesetsk Cosmodrome

Loading…

Próximas Passagens (próximas 24 horas)

TLE

ObsoletoSource: Space-Track

Época: May 22, 2026, 13:01 UTC

1 56577U 14028BL  26142.54280693  .00000417  00000-0  14143-2 0  9994
2 56577  82.3135 246.6409 0178573  40.6197 320.8074 12.91551868156757

Acompanhe COSMOS 2499 DEB em tempo real com AllMySat

Download on the App Store